Time,TemperatureF,DewpointF,PressureIn,WindDirection,WindDirectionDegrees,WindSpeedMPH,WindSpeedGustMPH,Humidity,HourlyPrecipIn,Conditions,Clouds,dailyrainin,SolarRadiationWatts/m^2,SoftwareType,DateUTC
2013-02-18 00:01:00,33.0,32.0,-100.00,East,79,0.0,0.0,95,0.00,,,0.00,1.000000,,2013-02-18 08:01:00,
2013-02-18 00:10:00,33.0,30.0,-100.00,North,7,2.0,4.0,90,0.00,,,0.00,1.000000,,2013-02-18 08:10:00,
2013-02-18 00:33:00,33.0,30.0,-100.00,North,7,2.0,4.0,90,0.00,,,0.00,1.000000,,2013-02-18 08:33:00,
2013-02-18 00:42:00,33.0,30.0,-100.00,North,7,2.0,4.0,90,0.00,,,0.00,1.000000,,2013-02-18 08:42:00,
2013-02-18 00:52:00,33.0,30.0,-100.00,North,7,2.0,4.0,90,0.00,,,0.00,1.000000,,2013-02-18 08:52:00,
2013-02-18 01:02:00,33.0,30.0,-100.00,North,7,2.0,4.0,90,0.00,,,0.00,1.000000,,2013-02-18 09:02:00,
2013-02-18 01:10:00,30.0,28.0,-100.00,ESE,120,0.0,3.0,94,0.00,,,0.00,1.000000,,2013-02-18 09:10:00,
2013-02-18 01:32:00,30.0,28.0,-100.00,ESE,120,0.0,3.0,94,0.00,,,0.00,1.000000,,2013-02-18 09:32:00,
2013-02-18 01:42:00,30.0,28.0,-100.00,ESE,120,0.0,3.0,94,0.00,,,0.00,1.000000,,2013-02-18 09:42:00,
2013-02-18 01:52:00,30.0,28.0,-100.00,ESE,120,0.0,3.0,94,0.00,,,0.00,1.000000,,2013-02-18 09:52:00,
2013-02-18 02:01:00,30.0,28.0,-100.00,ESE,120,0.0,3.0,94,0.00,,,0.00,1.000000,,2013-02-18 10:01:00,
2013-02-18 02:10:00,29.0,28.0,-100.00,SE,137,0.0,2.0,95,0.00,,,0.00,1.000000,,2013-02-18 10:10:00,
2013-02-18 02:42:00,29.0,28.0,-100.00,SE,137,0.0,2.0,95,0.00,,,0.00,1.000000,,2013-02-18 10:42:00,
2013-02-18 02:52:00,29.0,28.0,-100.00,SE,137,0.0,2.0,95,0.00,,,0.00,1.000000,,2013-02-18 10:52:00,
2013-02-18 03:01:00,29.0,28.0,-100.00,SE,137,0.0,2.0,95,0.00,,,0.00,1.000000,,2013-02-18 11:01:00,
2013-02-18 03:10:00,30.0,29.0,-100.00,SE,125,0.0,1.0,96,0.00,,,0.00,1.000000,,2013-02-18 11:10:00,
2013-02-18 03:43:00,30.0,29.0,-100.00,SE,125,0.0,1.0,96,0.00,,,0.00,1.000000,,2013-02-18 11:43:00,
2013-02-18 03:53:00,30.0,29.0,-100.00,SE,125,0.0,1.0,96,0.00,,,0.00,1.000000,,2013-02-18 11:53:00,
2013-02-18 04:02:00,30.0,29.0,-100.00,SE,125,0.0,1.0,96,0.00,,,0.00,1.000000,,2013-02-18 12:02:00,
2013-02-18 04:10:00,30.0,29.0,-100.00,SE,145,0.0,1.0,96,0.00,,,0.00,1.000000,,2013-02-18 12:10:00,
2013-02-18 04:32:00,30.0,29.0,-100.00,SE,145,0.0,1.0,96,0.00,,,0.00,1.000000,,2013-02-18 12:32:00,
2013-02-18 04:42:00,30.0,29.0,-100.00,SE,145,0.0,1.0,96,0.00,,,0.00,1.000000,,2013-02-18 12:42:00,
2013-02-18 05:02:00,30.0,29.0,-100.00,SE,145,0.0,1.0,96,0.00,,,0.00,1.000000,,2013-02-18 13:02:00,
2013-02-18 05:10:00,31.0,30.0,-100.00,ESE,114,0.0,2.0,95,0.00,,,-99.99,1.000000,,2013-02-18 13:10:00,
2013-02-18 05:42:00,31.0,30.0,-100.00,ESE,114,0.0,2.0,95,0.00,,,-99.99,1.000000,,2013-02-18 13:42:00,
2013-02-18 05:53:00,31.0,30.0,-100.00,ESE,114,0.0,2.0,95,0.00,,,-99.99,1.000000,,2013-02-18 13:53:00,
2013-02-18 06:02:00,31.0,30.0,-100.00,ESE,114,0.0,2.0,95,0.00,,,-99.99,1.000000,,2013-02-18 14:02:00,
2013-02-18 06:10:00,31.0,30.0,-100.00,SE,125,0.0,3.0,95,0.00,,,0.00,1.000000,,2013-02-18 14:10:00,
2013-02-18 06:33:00,31.0,30.0,-100.00,SE,125,0.0,3.0,95,0.00,,,0.00,1.000000,,2013-02-18 14:33:00,
2013-02-18 06:42:00,31.0,30.0,-100.00,SE,125,0.0,3.0,95,0.00,,,0.00,1.000000,,2013-02-18 14:42:00,
2013-02-18 06:53:00,31.0,30.0,-100.00,SE,125,0.0,3.0,95,0.00,,,0.00,1.000000,,2013-02-18 14:53:00,
2013-02-18 07:01:00,31.0,30.0,-100.00,SE,125,0.0,3.0,95,0.00,,,0.00,1.000000,,2013-02-18 15:01:00,
2013-02-18 07:10:00,30.0,29.0,-100.00,NE,40,0.0,1.0,95,0.00,,,0.00,1.000000,,2013-02-18 15:10:00,
2013-02-18 07:42:00,30.0,29.0,-100.00,NE,40,0.0,1.0,95,0.00,,,0.00,1.000000,,2013-02-18 15:42:00,
2013-02-18 07:52:00,30.0,29.0,-100.00,NE,40,0.0,1.0,95,0.00,,,0.00,1.000000,,2013-02-18 15:52:00,
2013-02-18 08:02:00,30.0,29.0,-100.00,NE,40,0.0,1.0,95,0.00,,,0.00,1.000000,,2013-02-18 16:02:00,
2013-02-18 08:10:00,30.0,29.0,-100.00,ENE,65,0.0,0.0,95,0.00,,,0.00,22.000000,,2013-02-18 16:10:00,
2013-02-18 08:33:00,30.0,29.0,-100.00,ENE,65,0.0,0.0,95,0.00,,,0.00,22.000000,,2013-02-18 16:33:00,
2013-02-18 08:43:00,30.0,29.0,-100.00,ENE,65,0.0,0.0,95,0.00,,,0.00,22.000000,,2013-02-18 16:43:00,
2013-02-18 08:52:00,30.0,29.0,-100.00,ENE,65,0.0,0.0,95,0.00,,,0.00,22.000000,,2013-02-18 16:52:00,
2013-02-18 09:03:00,30.0,29.0,-100.00,ENE,65,0.0,0.0,95,0.00,,,0.00,22.000000,,2013-02-18 17:03:00,
2013-02-18 09:10:00,33.0,31.0,-100.00,East,101,0.0,2.0,94,0.00,,,0.00,72.000000,,2013-02-18 17:10:00,
2013-02-18 09:43:00,33.0,31.0,-100.00,East,101,0.0,2.0,94,0.00,,,0.00,72.000000,,2013-02-18 17:43:00,
2013-02-18 09:52:00,33.0,31.0,-100.00,East,101,0.0,2.0,94,0.00,,,0.00,72.000000,,2013-02-18 17:52:00,
2013-02-18 10:02:00,33.0,31.0,-100.00,East,101,0.0,2.0,94,0.00,,,0.00,72.000000,,2013-02-18 18:02:00,
2013-02-18 10:10:00,37.0,31.0,-100.00,SSW,192,1.0,4.0,79,0.00,,,0.00,154.000000,,2013-02-18 18:10:00,
2013-02-18 10:33:00,37.0,31.0,-100.00,SSW,192,1.0,4.0,79,0.00,,,0.00,154.000000,,2013-02-18 18:33:00,
2013-02-18 10:43:00,37.0,31.0,-100.00,SSW,192,1.0,4.0,79,0.00,,,0.00,154.000000,,2013-02-18 18:43:00,
2013-02-18 10:52:00,37.0,31.0,-100.00,SSW,192,1.0,4.0,79,0.00,,,0.00,154.000000,,2013-02-18 18:52:00,
2013-02-18 11:02:00,37.0,31.0,-100.00,SSW,192,1.0,4.0,79,0.00,,,0.00,154.000000,,2013-02-18 19:02:00,
2013-02-18 11:10:00,42.0,32.0,-100.00,SE,131,0.0,3.0,68,0.00,,,0.00,262.000000,,2013-02-18 19:10:00,
2013-02-18 11:43:00,42.0,32.0,-100.00,SE,131,0.0,3.0,68,0.00,,,0.00,262.000000,,2013-02-18 19:43:00,
2013-02-18 11:53:00,42.0,32.0,-100.00,SE,131,0.0,3.0,68,0.00,,,0.00,262.000000,,2013-02-18 19:53:00,
2013-02-18 12:01:00,42.0,32.0,-100.00,SE,131,0.0,3.0,68,0.00,,,0.00,262.000000,,2013-02-18 20:01:00,
2013-02-18 13:10:00,42.0,30.0,-100.00,WSW,244,1.0,4.0,61,-99.99,,,0.00,145.000000,,2013-02-18 21:10:00,
2013-02-18 13:43:00,42.0,30.0,-100.00,WSW,244,1.0,4.0,61,-99.99,,,0.00,145.000000,,2013-02-18 21:43:00,
2013-02-18 13:52:00,42.0,30.0,-100.00,WSW,244,1.0,4.0,61,-99.99,,,0.00,145.000000,,2013-02-18 21:52:00,
2013-02-18 14:02:00,42.0,30.0,-100.00,WSW,244,1.0,4.0,61,-99.99,,,0.00,145.000000,,2013-02-18 22:02:00,
2013-02-18 15:10:00,42.0,31.0,-100.00,SSW,195,1.0,6.0,65,-99.99,,,0.00,162.000000,,2013-02-18 23:10:00,
2013-02-18 15:34:00,42.0,31.0,-100.00,SSW,195,1.0,6.0,65,-99.99,,,0.00,162.000000,,2013-02-18 23:34:00,
2013-02-18 15:43:00,42.0,31.0,-100.00,SSW,195,1.0,6.0,65,-99.99,,,0.00,162.000000,,2013-02-18 23:43:00,
2013-02-18 15:53:00,42.0,31.0,-100.00,SSW,195,1.0,6.0,65,-99.99,,,0.00,162.000000,,2013-02-18 23:53:00,
2013-02-18 16:02:00,42.0,31.0,-100.00,SSW,195,1.0,6.0,65,-99.99,,,0.00,162.000000,,2013-02-19 00:02:00,
2013-02-18 16:10:00,40.0,33.0,-100.00,WNW,291,0.0,5.0,77,0.00,,,0.00,74.000000,,2013-02-19 00:10:00,
2013-02-18 16:35:00,40.0,33.0,-100.00,WNW,291,0.0,5.0,77,0.00,,,0.00,74.000000,,2013-02-19 00:35:00,
2013-02-18 16:44:00,40.0,33.0,-100.00,WNW,291,0.0,5.0,77,0.00,,,0.00,74.000000,,2013-02-19 00:44:00,
2013-02-18 16:54:00,40.0,33.0,-100.00,WNW,291,0.0,5.0,77,0.00,,,0.00,74.000000,,2013-02-19 00:54:00,
2013-02-18 17:02:00,40.0,33.0,-100.00,WNW,291,0.0,5.0,77,0.00,,,0.00,74.000000,,2013-02-19 01:02:00,
2013-02-18 17:10:00,39.0,32.0,-100.00,NNE,22,0.0,2.0,77,0.00,,,-99.99,57.000000,,2013-02-19 01:10:00,
2013-02-18 17:45:00,39.0,32.0,-100.00,NNE,22,0.0,2.0,77,0.00,,,-99.99,57.000000,,2013-02-19 01:45:00,
2013-02-18 17:55:00,39.0,32.0,-100.00,NNE,22,0.0,2.0,77,0.00,,,-99.99,57.000000,,2013-02-19 01:55:00,
2013-02-18 18:02:00,39.0,32.0,-100.00,NNE,22,0.0,2.0,77,0.00,,,-99.99,57.000000,,2013-02-19 02:02:00,
2013-02-18 18:43:00,37.0,32.0,-100.00,NE,56,0.0,3.0,83,0.00,,,0.00,5.000000,,2013-02-19 02:43:00,
2013-02-18 18:54:00,37.0,32.0,-100.00,NE,56,0.0,3.0,83,0.00,,,0.00,5.000000,,2013-02-19 02:54:00,
2013-02-18 19:04:00,37.0,32.0,-100.00,NE,56,0.0,3.0,83,0.00,,,0.00,5.000000,,2013-02-19 03:04:00,
2013-02-18 19:10:00,36.0,31.0,-100.00,WNW,301,0.0,5.0,83,0.00,,,0.00,1.000000,,2013-02-19 03:10:00,
2013-02-18 19:35:00,36.0,31.0,-100.00,WNW,301,0.0,5.0,83,0.00,,,0.00,1.000000,,2013-02-19 03:35:00,
2013-02-18 19:45:00,36.0,31.0,-100.00,WNW,301,0.0,5.0,83,0.00,,,0.00,1.000000,,2013-02-19 03:45:00,
2013-02-18 19:54:00,36.0,31.0,-100.00,WNW,301,0.0,5.0,83,0.00,,,0.00,1.000000,,2013-02-19 03:54:00,
2013-02-18 20:01:00,36.0,31.0,-100.00,WNW,301,0.0,5.0,83,0.00,,,0.00,1.000000,,2013-02-19 04:01:00,
2013-02-18 20:10:00,37.0,30.0,-100.00,North,3,2.0,6.0,76,0.00,,,0.00,1.000000,,2013-02-19 04:10:00,
2013-02-18 20:34:00,37.0,30.0,-100.00,North,3,2.0,6.0,76,0.00,,,0.00,1.000000,,2013-02-19 04:34:00,
2013-02-18 20:44:00,37.0,30.0,-100.00,North,3,2.0,6.0,76,0.00,,,0.00,1.000000,,2013-02-19 04:44:00,
2013-02-18 20:54:00,37.0,30.0,-100.00,North,3,2.0,6.0,76,0.00,,,0.00,1.000000,,2013-02-19 04:54:00,
2013-02-18 21:01:00,37.0,30.0,-100.00,North,3,2.0,6.0,76,0.00,,,0.00,1.000000,,2013-02-19 05:01:00,
2013-02-18 21:10:00,36.0,30.0,-100.00,NNW,333,1.0,6.0,78,0.00,,,0.00,1.000000,,2013-02-19 05:10:00,
2013-02-18 21:32:00,36.0,30.0,-100.00,NNW,333,1.0,6.0,78,0.00,,,0.00,1.000000,,2013-02-19 05:32:00,
2013-02-18 21:43:00,36.0,30.0,-100.00,NNW,333,1.0,6.0,78,0.00,,,0.00,1.000000,,2013-02-19 05:43:00,
2013-02-18 21:52:00,36.0,30.0,-100.00,NNW,333,1.0,6.0,78,0.00,,,0.00,1.000000,,2013-02-19 05:52:00,
2013-02-18 22:02:00,36.0,30.0,-100.00,NNW,333,1.0,6.0,78,0.00,,,0.00,1.000000,,2013-02-19 06:02:00,
2013-02-18 22:10:00,35.0,30.0,-100.00,East,97,1.0,4.0,82,0.00,,,0.00,1.000000,,2013-02-19 06:10:00,
2013-02-18 22:33:00,35.0,30.0,-100.00,East,97,1.0,4.0,82,0.00,,,0.00,1.000000,,2013-02-19 06:33:00,
2013-02-18 22:42:00,35.0,30.0,-100.00,East,97,1.0,4.0,82,0.00,,,0.00,1.000000,,2013-02-19 06:42:00,
2013-02-18 22:52:00,35.0,30.0,-100.00,East,97,1.0,4.0,82,0.00,,,0.00,1.000000,,2013-02-19 06:52:00,
2013-02-18 23:01:00,35.0,30.0,-100.00,East,97,1.0,4.0,82,0.00,,,0.00,1.000000,,2013-02-19 07:01:00,
2013-02-18 23:10:00,35.0,30.0,-100.00,NNE,19,0.0,3.0,81,0.00,,,0.00,1.000000,,2013-02-19 07:10:00,
2013-02-18 23:42:00,35.0,30.0,-100.00,NNE,19,0.0,3.0,81,0.00,,,0.00,1.000000,,2013-02-19 07:42:00,
2013-02-18 23:52:00,35.0,30.0,-100.00,NNE,19,0.0,3.0,81,0.00,,,0.00,1.000000,,2013-02-19 07:52:00,